Location: Dalton
(34.7700°N, 84.9700°W)
Time: 21:40:27
(UTC-04:00)

Tiangong 2 - Pass Details

Date: 15 October 2017
Orbit: 388 x 392 km, 42.8° (Epoch: 19 October)

Event Time Altitude Azimuth Distance (km) Brightness Sun altitude
Exits shadow 07:08:08 - 311° (NW) 1,609 3.7 -8.5°
Reaches altitude 10° 07:08:41 10° 316° (NW) 1,420 3.5 -8.4°
Maximum altitude 07:11:21 23° 12° (NNE) 873 2.9 -7.9°
Drops below altitude 10° 07:14:00 10° 68° (ENE) 1,419 5.1 -7.3°
Sets 07:16:20 0° 83° (E) 2,274 7.0 -6.8°
